Regional Weather Roundup
Issued by NWS

Home | Current Version | Previous Version | Graphics & Text | Print | Product List | Glossary On
Versions: 1 2 3 4 5 6 7 8 9 10 11 12 13 14 15 16 17 18 19 20 21 22 23 24 25 26 27 28 29 30 31 32 33 34 35 36 37 38 39 40 41 42 43 44 45 46 47 48 49 50
000
ASUS43 KOAX 231610
RWRNE

WEATHER ROUNDUP FOR NEBRASKA
NATIONAL WEATHER SERVICE OMAHA NE
1000 AM CST THU FEB 23 2017

NOTES: SATELLITE DATA IS BEING USED TO AUGMENT CLOUD COVER ABOVE
       12000 FEET.
       "FAIR" INDICATES FEW OR NO CLOUDS BELOW 12,000 FEET WITH NO
       SIGNIFICANT WEATHER AND/OR OBSTRUCTIONS TO VISIBILITY.

  * THESE STATIONS DO NOT REPORT WEATHER SUCH AS RAIN...SNOW OR FOG.

NEZ001>004-019>022-054>056-231700-
NEBRASKA PANHANDLE

CITY           SKY/WX    TMP DP  RH WIND       PRES   REMARKS
SCOTTSBLUFF    SNOW      27  24  89 E9        29.69F VSB 1/4 WCI  18
ALLIANCE       HVY SNOW  24  22  91 E18       29.70F VSB 1/4 WCI  10
CHADRON        SNOW      26  23  88 NE17      29.79F VSB 1/2 WCI  13
KIMBALL        MIX PCPN  28  28 100 E16G22    29.62F WCI  17
SIDNEY         MIX PCPN  28  25  88 NE16      29.64F WCI  16
$$

NEZ057>060-069>072-079>082-231700-
SOUTHWEST NEBRASKA

CITY           SKY/WX    TMP DP  RH WIND       PRES   REMARKS
NORTH PLATTE   CLOUDY    30  27  88 NE20G26   29.70F WCI  17
IMPERIAL       CLOUDY    31  29  92 NE20G25   29.64F FOG     WCI  19
LEXINGTON      CLOUDY    32  31  94 NE20      29.69F FOG     WCI  20
MCCOOK         CLOUDY    33  32  96 NE23      29.64F FOG     WCI  21
OGALLALA       CLOUDY    32  28  87 NE18      29.68F WCI  20
$$

NEZ005>010-023>029-035>040-094-231700-
NORTH CENTRAL NEBRASKA

CITY           SKY/WX    TMP DP  RH WIND       PRES   REMARKS
VALENTINE      SNOW      25  22  88 NE16      29.83R VSB 1/4 WCI  12
AINSWORTH      LGT SNOW  27  26  98 NE17      29.82S VSB 3/4 WCI  14
BROKEN BOW     CLOUDY    29  29 100 NE17G24   29.71F FOG     WCI  17
O`NEILL        LGT SNOW  30  29  96 N12       29.82R WCI  20
ORD            CLOUDY    30  28  92 NE17      29.75S WCI  18
THEDFORD       LGT SNOW  28  26  94 NE14      29.75F WCI  17
$$

NEZ041-046>049-061>064-073>077-083>087-231700-
SOUTH CENTRAL NEBRASKA

CITY           SKY/WX    TMP DP  RH WIND       PRES   REMARKS
GRAND ISLAND   CLOUDY    32  32 100 NE21G29   29.71F FOG     WCI  20
AURORA         CLOUDY    33  33  97 NE21G26   29.70S WCI  21
HASTINGS       CLOUDY    34  32  92 NE23      29.68F WCI  22
HEBRON         CLOUDY    40  35  80 NE18G24   29.66S WCI  31
HOLDREGE       CLOUDY    32  32  99 NE18G25   29.67F FOG     WCI  21
KEARNEY *      CLOUDY    34  28  80 NE18      29.70S WCI  23
YORK           CLOUDY    34  34 100 NE21G28   29.69F WCI  22
$$

NEZ011>018-030>034-042>045-231700-
NORTHEAST NEBRASKA

CITY           SKY/WX    TMP DP  RH WIND       PRES   REMARKS
NORFOLK        CLOUDY    32  30  92 NE17      29.77F WCI  21
ALBION         CLOUDY    33  31  91 NE17G25   29.75F WCI  22
BLAIR          CLOUDY    37  33  87 NE22G28   29.74F WCI  25
FREMONT        CLOUDY    36  33  87 NE16G22   29.75F WCI  27
TEKAMAH        CLOUDY    37  32  82 NE15      29.80F WCI  28
WAYNE          CLOUDY    33  32  95 NE13      29.81F WCI  24
$$

NEZ050>053-065>068-078-088>093-231700-
SOUTHEAST NEBRASKA

CITY           SKY/WX    TMP DP  RH WIND       PRES   REMARKS
LINCOLN        CLOUDY    37  34  89 NE21      29.72F WCI  26
OMAHA EPPLEY   CLOUDY    38  32  79 NE13G22   29.76F WCI  30
BEATRICE       CLOUDY    40  36  87 NE17G25   29.67F WCI  31
FALLS CITY     CLOUDY    42  38  85 E18G24    29.66F
NEBRASKA CITY  CLOUDY    38  35  89 NE16      29.70F WCI  29
PLATTSMOUTH    CLOUDY    37  33  87 NE15      29.73F WCI  27
$$

NEZ044-045-051>053-067-231700-
OMAHA AREA

CITY           SKY/WX    TMP DP  RH WIND       PRES   REMARKS
OMAHA EPPLEY   CLOUDY    38  32  79 NE13G22   29.76F WCI  30
BLAIR          CLOUDY    37  33  87 NE22G28   29.74F WCI  25
FREMONT        CLOUDY    36  33  87 NE16G22   29.75F WCI  27
MILLARD        CLOUDY    39  35  84 NE9G18    29.76F WCI  33
OFFUTT AFB     CLOUDY    38  32  81 NE9G17    29.76R WCI  31
PLATTSMOUTH    CLOUDY    37  33  87 NE15      29.73F WCI  27
WAHOO          CLOUDY    36  33  90 NE20G25   29.73F WCI  25
$$




USA.gov is the U.S. government's official web portal to all federal, state and local government web resources and services.